STARLINK-34377, 64279

Orbit data source: Space-Track

STARLINK-34377, 64279 is a payload satellite owned by SpaceX/Seattle (US) in LEO that was launched on Wed, 04 Jun 2025 UTC via an FALCON 9 launch vehicle from the Air Force Western Test Range (AFWTR). Payload-class satellites include a variety of spacecraft equipped with specific instruments for various scientific and technological missions. These include communications satellites like Starlink; space stations such as the ISS; scientific satellites like the Hubble; Earth observation satellites from companies like Planet Labs, Umbra, and HawkEye 360; GPS; miniature CubeSats for education and research; and military/defense satellites.

Loading next visibility...
Identifier
64279, 2025-120Z
Orbit
LEO
Country
Flag of USUS
Related business
Manufacturer
SpaceX/Seattle
Mission
Operational Commercial Communications
Bus & Motor
STARLINK V2MO, Unknown motor
Mass
575 kg wet, ~530 kg dry
Launch date (UTC)
2025-06-04 (1 year ago)
Launch vehicle
FALCON 9
Launch site
Air Force Western Test Range (AFWTR)
Object type
Payload
Rocket body
Debris
Shape & HBR
Box + 2 Pan, 17.7 m
Radar Cross Section
36.964 m², Large (>1 m²)

Expand to show TLE details & history
Last TLE update: 22 hours ago

TLE from 22 hours ago
0 STARLINK-34377
1 64279U 25120Z   26170.93475062  .00023031  00000-0  69026-3 0  9995
2 64279  53.1589 358.6991 0000858  75.0153 285.0945 15.34418977 59617
Epoch: 2026-06-19T22:26Z
TLE epoch observation values (Epoch: 2026-06-19T22:26:02.453Z)
Latitude
0.00001°
Longitude
114.03229°
Altitude
463.395 km
Speed
7.636 km/s
True Right ascension
23h 54m 47s
True Declination
0° 00' 00"
Sunlit
Object was in daylight at epoch
Visualization orbit readout
Latitude
Unknown
Longitude
Unknown
Altitude
Unknown
Speed
Unknown
Apparent Right ascension
Unknown
Apparent Declination
Unknown
Sunlit
N/A
Visualization observer readout
Local Sidereal Time
07:16:24
Azimuth
Unknown
Elevation
Unknown
Doppler factor
Unknown
Orbital elements
Apogee altitude
463.491 km
Perigee altitude
462.317 km
Semi-major axis
6,841.041 km
Eccentricity
0.00009
Inclination
53.1589°
RAAN
358.6991°
Arg. of periapsis
75.0153°
True anomaly
285.08501°
Mean anomaly
285.0945°
Eccentric anomaly
285.08975°
Mean motion
3.83583 °/min
Orbital period
93.85 mins
BSTAR
0.00069026
Loading maneuver chart data...
Computing Atmospheric mass density...
Loading historical data...
Loading historical data...
Loading historical data...
Loading historical data...
Loading historical data...
Loading historical data...
Loading historical data...

Documentation

Showing up to 5 results
|